Torna al catalogo

USA 223

AttivoMilitareGEO
NORAD 37232·PAYLOAD·🇺🇸 United States

Lanciato Nov 21, 2010 da Cape Canaveral Space Force Station

Loading…

TLE

AggiornatoSource: Mike McCants

Epoca: Sep 14, 2026, 23:22 UTC

1 37232U 10063A   26257.97422611  .00000000  00000-0  00000-0 0    04
2 37232   9.6457  80.5758 0024461 254.9275 104.8094  1.00270000 18335

Traccia USA 223 in tempo reale con AllMySat

Download on the App Store